Regional Weather Roundup
Issued by NWS

Home | Current Version | Previous Version | Graphics & Text | Print | Product List | Glossary Off
Versions: 1 2 3 4 5 6 7 8 9 10 11 12 13 14 15 16 17 18 19 20 21 22 23 24 25 26 27 28 29 30 31 32 33 34 35 36 37 38 39 40 41 42 43 44 45 46 47 48 49 50

000
ASUS43 KMKX 230721
RWRWI

WISCONSIN REGIONAL WEATHER ROUNDUP
NATIONAL WEATHER SERVICE MILWAUKEE/SULLIVAN WI
100 AM CST SUN NOV 23 2014

NOTE: "FAIR" INDICATES FEW OR NO CLOUDS BELOW 12,000 FEET WITH NO
SIGNIFICANT WEATHER AND/OR OBSTRUCTIONS TO VISIBILITY.

WIZ001-002-006>008-014>016-023>028-230800-
NORTHWEST WISCONSIN

CITY           SKY/WX    TMP DP  RH WIND       PRES   REMARKS
SUPERIOR ARPT  CLOUDY    35  35  99 NE5       29.51F FOG     WCI  31
ASHLAND        CLOUDY    36  33  89 E3        29.56F
HAYWARD        CLOUDY    37  36  96 S8        29.52F FOG     WCI  31
SIREN          CLOUDY    40  39  98 S8        29.49F FOG     WCI  34
CUMBERLAND     FOG       34  34 100 SE9       29.52F VSB 1/4 WCI  26
RICE LAKE      FOG       36  36  98 SE10      29.55F VSB<1/4 WCI  29
CHETEK         FOG       36  36 100 E3        29.55F VSB 1/4
LADYSMITH      FOG       39  38  97 SE8       29.58F VSB 1/2 WCI  33
EAU CLAIRE     FOG       39  38  96 CALM      29.56F VSB 1/4
MENOMONIE      FOG       37  37  99 SE9       29.55F VSB<1/4 WCI  30
NEW RICHMOND   FOG       40  40 100 S10       29.51F VSB 1/2 WCI  34
OSCEOLA        CLOUDY    40  40 100 SE8       29.52F FOG     WCI  35
$$

WIZ003>005-009-010-017-018-230800-
NORTH CENTRAL WISCONSIN

CITY           SKY/WX    TMP DP  RH WIND       PRES   REMARKS
MANITOWISH WTR CLOUDY    35  35 100 S6        29.60F FOG     WCI  30
ARBOR VITAE    FOG       37  36  96 S5        29.61F VSB 1/2 WCI  33
WOODRUFF       FOG       37  36  96 S5        29.61F VSB 1/2 WCI  33
RHINELANDER    FOG       36  36 100 S6        29.63F VSB 1/4 WCI  31
EAGLE RIVER    FOG       35  35 100 S5        29.62F VSB 3/4 WCI  31
LAND O LAKES   FOG       35  35 100 S3        29.62F VSB 1
PHILLIPS       FOG       37  37 100 SE7       29.58F VSB 1/2 WCI  31
TOMAHAWK       FOG       36  35  96 CALM      29.62F VSB 1/2
MEDFORD        FOG       37  37  99 SE8       29.60F VSB 1/4 WCI  31
MERRILL        FOG       36  36 100 S3        29.63F VSB 1/4
$$

WIZ029-030-035-036-043>047-230800-
CENTRAL WISCONSIN

CITY           SKY/WX    TMP DP  RH WIND       PRES   REMARKS
WAUSAU         FOG       38  38 100 CALM      29.63F VSB 1/4
MOSINEE        FOG       37  37 100 SE9       29.64F VSB<1/4 WCI  31
MARSHFIELD     FOG       41  40  96 S8        29.61F VSB 1/4
STEVENS POINT  DRZL/FOG  41  41 100 SE5       29.65F VSB 1/4
WAUPACA        FOG       40  39  96 CALM      29.68F VSB 1/4
WAUTOMA        CLOUDY    46  46 100 S8        29.67F FOG
WISC RAPIDS    CLOUDY    46  45  96 S7        29.66F
CAMP DOUGLAS   CLOUDY    50  50 100 S8        29.63F
$$

WIZ011>013-019>022-031-037>040-048>050-230800-
NORTHEAST WISCONSIN

CITY           SKY/WX    TMP DP  RH WIND       PRES   REMARKS
ANTIGO         FOG       35  35 100 SE9       29.64F VSB 1/4 WCI  27
SHAWANO        FOG       37  35  94 CALM      29.70F VSB<1/4
OCONTO         CLOUDY    37  37 100 CALM      29.71F VSB 1/4
STURGEON BAY   CLOUDY    43  41  93 S8        29.73F VSB 1/2
GREEN BAY      FOG       42  42 100 S3        29.70F VSB 1/4
MANITOWOC      CLOUDY    44  43  96 S9        29.73F FOG
APPLETON       FOG       43  43 100 S7        29.70F VSB 1/4
CLINTONVILLE   FOG       37  36  93 CALM      29.69F VSB<1/4
OSHKOSH        CLOUDY    47  44  90 S12       29.71F FOG
$$

WIZ032>034-041-042-053>061-230800-
SOUTHWEST WISCONSIN

CITY           SKY/WX    TMP DP  RH WIND       PRES   REMARKS
LA CROSSE      CLOUDY    50  48  93 S16       29.60F FOG
SPARTA         CLOUDY    51  49  93 S10       29.62F
VIROQUA        CLOUDY    49  49 100 S13G25    29.63F
BOSCOBEL       CLOUDY    54  48  80 S9G22     29.67F
PRAIRIE DU CHI CLOUDY    53  48  83 S8        29.65F
PLATTEVILLE    CLOUDY    49  48  95 S16       29.71F
$$

WIZ056-057-062-063-064-067-068-230800-
SOUTH CENTRAL WISCONSIN

CITY           SKY/WX    TMP DP  RH WIND       PRES   REMARKS
REEDSBURG      CLOUDY    51  49  92 S9        29.66F
BARABOO/DELLS  CLOUDY    50  47  89 S8        29.67F
LONE ROCK      CLOUDY    55  48  77 S8        29.69F
MINERAL POINT  CLOUDY    50  46  87 S12       29.69F
MADISON        CLOUDY    49  46  90 S10       29.72F
MIDDLETON      CLOUDY    51  48  92 S15G21    29.71F
WATERTOWN      CLOUDY    47  47 100 S7        29.74S
MONROE         CLOUDY    46  46 100 S22G30    29.73S
JANESVILLE     CLOUDY    50  46  87 S9        29.76F
$$

WIZ051-052-058>065-066-070>072-230800-
SOUTHEAST WISCONSIN

CITY           SKY/WX    TMP DP  RH WIND       PRES   REMARKS
MILWAUKEE      CLOUDY    48  45  89 S10       29.78F
WAUKESHA       CLOUDY    46  45  93 S8        29.77F
MILWAUKEE/TIMM CLOUDY    50  45  81 S13       29.77F
RACINE         CLOUDY    50  46  86 SW12      29.80F
BURLINGTON     CLOUDY    47  46  93 S12       29.78F
KENOSHA        MOCLDY    50  47  89 S15       29.79F
FOND DU LAC    MOCLDY    49  45  86 S14       29.71F
SHEBOYGAN      CLOUDY    43  41  93 S9        29.73F FOG
WEST BEND      CLOUDY    48  45  87 S9        29.73F
JUNEAU         CLOUDY    47  45  95 S13       29.74F FOG
$$

LSZ147-162-230800-
LAKE SUPERIOR

STATION/POSITION TIME  TEMP    WIND        PRES    WAVE
                       AIR SEA DIR/SP/G            HT/PER
                 (UTC) (F)     (DEG/KT/KT) (MB)    (FT/S)
DEVILS ISLAND    0700   37     120/  9/ 11 1002.0F
PORT WING        0600   36      60/  1/  3 1002.0
SAXON HARBOR     0700   38      CALM  /  8 1001.0F
$$

LMZ867-665-643>646-230800-
LAKE MICHIGAN

STATION/POSITION TIME  TEMP    WIND        PRES    WAVE
                       AIR SEA DIR/SP/G            HT/PER
                 (UTC) (F)     (DEG/KT/KT) (MB)    (FT/S)
CHAMBERS ISLAND  0600   40     140/  4/  6 1007.8S
N MID LAKE BUOY  0650   42 42  170/  6/  8 1008.1F   3/ 7
NORTHPORT PIER   0700   38     140/  6/  8 1007.1F
SISTER BAY       0643             CALM       N/A
KEWAUNEE LAKESHO 0700   40     180/  9/ 11 1006.0F
SHEBOYGAN LAKESH 0700   44 36  170/ 16/ 16 1007.4F
PORT WASHINGTON  0640   38      CALM  /  3 1008.8F
ATWATER BUOY     0700   48      CALM  /  2 1009.6F
MILWAUKEE LAKESH 0700   48     190/ 10/ 11   N/A
S MID LAKE BUOY  0650   46 43  180/ 16/ 17 1010.2F   3/ 5
KENOSHA   LAKESH 0700   51     200/ 12/ 16 1009.1F
$$

TC  - TEMPERATURE IN CELSIUS
VSB - VISIBILITY IN STATUTE MILES
WCI - WIND CHILL INDEX
HX  - HEAT INDEX




USA.gov is the U.S. government's official web portal to all federal, state and local government web resources and services.